Abilene, TX

6:04 AM CDT on June 23, 2017 (GMT -0500)
Abilene Regional

Weather History for KABI - May, 2013

Change the Weather History Date:

Monday, May 27, 2013

  Actual Average Record
Temperature  
Mean Temperature 81 °F 76 °F  
Max Temperature 91 °F 87 °F 107 °F (2011)
Min Temperature 71 °F 65 °F 47 °F (1901)
Degree Days  
Heating Degree Days 0 0  
Month to date heating degree days 50 13  
Since 1 July heating degree days 2301 2555  
Cooling Degree Days 16 11  
Month to date cooling degree days 235 220  
Year to date cooling degree days 411 353  
Growing Degree Days 31 (Base 50)    
Moisture  
Dew Point 66 °F    
Average Humidity 64    
Maximum Humidity 84    
Minimum Humidity 44    
Precipitation  
Precipitation 0.00 in 0.12 in 1.75 in (1980)
Month to date precipitation 1.98 2.67  
Year to date precipitation 6.20 8.43  
Sea Level Pressure  
Sea Level Pressure 29.79 in    
Wind  
Wind Speed 19 mph (South)    
Max Wind Speed 31 mph    
Max Gust Speed 35 mph    
Visibility 10 miles    
Events      
T = Trace of Precipitation, MM = Missing Value Source: NWS Daily Summary

Daily Weather History Graph

Daily Weather History Graph

Search for Another Location

Airport or City:

Trip Planner

Search our weather history database for the weather conditions in past years. The results will help you decide how hot, cold, wet, or windy it might be!

Date:

Astronomy

May. 27, 2013 Rise Set
Actual Time 6:33 AM CDT 8:38 PM CDT
Civil Twilight 6:06 AM CDT 9:05 PM CDT
Nautical Twilight 5:32 AM CDT 9:39 PM CDT
Astronomical Twilight 4:56 AM CDT 10:16 PM CDT
Moon 11:22 PM CDT (5/27) 9:10 AM CDT (5/27)
Length of Visible Light 14h 59m
Length of Day
14h 04m
Waning Gibbous, 91% of the Moon is Illuminated
May 27
Waning Gibbous
May 31
Last Quarter
Jun 8
New
Jun 16
First Quarter
Jun 23
Full

Hourly Weather History & Observations

Time (CDT) Temp. Heat Index Dew Point Humidity Pressure Visibility Wind Dir Wind Speed Gust Speed Precip Events Conditions
12:52 AM 75.9 °F - 63.0 °F 64% 29.86 in 10.0 mi South 16.1 mph 25.3 mph N/A   Clear
1:52 AM 73.0 °F - 64.0 °F 73% 29.85 in 10.0 mi South 16.1 mph 24.2 mph N/A   Clear
2:52 AM 72.0 °F - 66.0 °F 81% 29.83 in 10.0 mi South 16.1 mph 20.7 mph N/A   Clear
3:52 AM 71.1 °F - 66.9 °F 87% 29.82 in 10.0 mi South 13.8 mph 21.9 mph N/A   Mostly Cloudy
4:52 AM 73.0 °F - 66.9 °F 81% 29.81 in 10.0 mi South 16.1 mph - N/A   Overcast
5:52 AM 73.0 °F - 66.9 °F 81% 29.82 in 10.0 mi South 15.0 mph 21.9 mph N/A   Overcast
6:52 AM 73.9 °F - 66.9 °F 79% 29.83 in 10.0 mi South 11.5 mph - N/A   Overcast
7:52 AM 75.0 °F - 68.0 °F 79% 29.84 in 10.0 mi South 12.7 mph - N/A   Overcast
8:52 AM 77.0 °F - 66.9 °F 71% 29.83 in 10.0 mi South 16.1 mph 25.3 mph N/A   Overcast
9:52 AM 79.0 °F - 66.0 °F 64% 29.85 in 10.0 mi South 15.0 mph 28.8 mph N/A   Overcast
10:19 AM 80.6 °F 82.7 °F 66.2 °F 61% 29.92 in 10.0 mi South 18.4 mph 31.1 mph N/A   Mostly Cloudy
10:52 AM 81.0 °F 83.0 °F 66.0 °F 60% 29.83 in 10.0 mi South 24.2 mph 32.2 mph N/A   Overcast
11:52 AM 82.9 °F 84.6 °F 64.9 °F 54% 29.83 in 10.0 mi South 23.0 mph 31.1 mph N/A   Mostly Cloudy
12:52 PM 86.0 °F 88.2 °F 66.0 °F 51% 29.81 in 10.0 mi South 20.7 mph 29.9 mph N/A   Partly Cloudy
1:52 PM 88.0 °F 89.6 °F 64.9 °F 46% 29.79 in 10.0 mi South 23.0 mph 35.7 mph N/A   Clear
2:52 PM 89.1 °F 91.0 °F 64.9 °F 45% 29.75 in 10.0 mi SSE 25.3 mph 33.4 mph N/A   Clear
3:52 PM 90.0 °F 91.7 °F 64.9 °F 43% 29.73 in 10.0 mi South 17.3 mph 33.4 mph N/A   Clear
4:52 PM 90.0 °F 91.7 °F 64.9 °F 43% 29.70 in 10.0 mi SSE 26.5 mph 33.4 mph N/A   Clear
5:52 PM 88.0 °F 90.3 °F 66.0 °F 48% 29.66 in 10.0 mi South 26.5 mph 35.7 mph N/A   Clear
6:52 PM 84.0 °F 85.8 °F 64.9 °F 53% 29.70 in 10.0 mi South 23.0 mph 31.1 mph N/A   Clear
7:52 PM 82.9 °F 84.6 °F 64.9 °F 54% 29.70 in 10.0 mi South 16.1 mph 26.5 mph N/A   Clear
8:52 PM 82.0 °F 84.1 °F 66.0 °F 58% 29.70 in 10.0 mi South 18.4 mph 29.9 mph N/A   Clear
9:52 PM 82.0 °F 83.8 °F 64.9 °F 56% 29.70 in 10.0 mi South 23.0 mph 34.5 mph N/A   Clear
10:52 PM 80.1 °F 82.1 °F 66.0 °F 62% 29.73 in 10.0 mi South 19.6 mph - N/A   Clear
11:52 PM 79.0 °F - 66.9 °F 66% 29.74 in 10.0 mi SSE 16.1 mph - N/A   Clear